Location: Crescent
(42.8242°N, 73.7329°W)
Time: 07:59:29
(UTC+00:00)

Vanguard 1 Rocket - Pass Details

Date: 24 February 2026
Orbit: 653 x 4214 km, 34.3° (Epoch: 12 March)

Event Time Altitude Azimuth Distance (km) Brightness Sun altitude
Rises 00:54:59 0° 272° (W) 6,799 13.2 -25.9°
Reaches altitude 10° 01:02:00 10° 255° (WSW) 6,404 12.5 -27.2°
Maximum altitude 01:12:56 16° 224° (SW) 6,519 12.0 -29.1°
Drops below altitude 10° 01:25:36 10° 194° (SSW) 7,403 12.0 -31.4°
Sets 01:35:26 0° 177° (S) 8,333 12.1 -33.1°
